Flag for Madagascar Weather past 2 weeks in Toamasina, Madagascar

Now
79 °F

Scattered showers. Broken clouds.


Feels Like: 82 °F
Forecast: 70 / 76 °F
Wind: 7 mph from West

Location: Tamatave

Current Time: May 30, 2015 at 12:01:18 PM

Latest Report: May 30, 2015 at 11:00 AM


Visibility: N/A

Pressure: 30.09 "Hg

Humidity: 79%

Dew point: 72 °F

Location of ToamasinaLocation

Historic Weather in Toamasina — Graph

°F

Toamasina temperature yesterday

Maximum temperature yesterday: 81 °F (at 1:00 PM)
Minimum temperature yesterday: 63 °F (at 5:00 AM)
Average temperature yesterday: 71 °F

Past Weeks' High & Low Weather Summary

 TemperatureHumidityPressure
High97 °F (May 15, 2:00 PM)100% (May 17, 8:00 PM)30.15 "Hg (May 17, 8:00 PM)
Low63 °F (May 28, 6:00 AM)47% (May 15, 2:00 PM)30.01 "Hg (May 15, 1:00 PM)
Average75 °F86%30.07 "Hg
* Reported May 15 11:00 AM — May 30 11:00 AM, Toamasina, Weather by CustomWeather, © 2015

Note: Actual official high and low records may vary slightly from our data, if they occured in-between our weather recording intervals... More about our weather records

Advertising

Toamasina weather history for previous 24 hours

 ConditionsComfort  
Time TempWeatherWind HumidityBarometerVisibility
11:00 AM
Sat, May 30
79 °FScattered showers. Broken clouds.7 mph79%30.09 "HgN/A
10:00 AM77 °FScattered showers. Broken clouds.7 mph79%30.12 "HgN/A
9:00 AM75 °FScattered showers. Partly sunny.9 mph78%30.12 "HgN/A
8:00 AM73 °FScattered showers. Partly sunny.7 mph83%30.09 "HgN/A
7:00 AM70 °FScattered showers. Partly sunny.5 mph83%30.09 "HgN/A
6:00 AM68 °FScattered showers. Passing clouds.5 mph88%30.07 "HgN/A
5:00 AM68 °FPassing clouds.5 mph88%30.04 "HgN/A
4:00 AM68 °FPassing clouds.5 mph88%30.04 "HgN/A
3:00 AM68 °FPassing clouds.5 mph88%30.04 "HgN/A
2:00 AM68 °FScattered showers. Partly cloudy.5 mph88%30.04 "HgN/A
1:00 AM70 °FScattered showers. Partly cloudy.5 mph88%30.07 "HgN/A
12:00 AM70 °FScattered showers. Partly cloudy.5 mph88%30.07 "HgN/A
11:00 PM
Fri, May 29
68 °FScattered showers. Partly cloudy.No wind94%30.07 "HgN/A
10:00 PM70 °FPassing clouds.No wind88%30.07 "HgN/A
9:00 PM70 °FPassing clouds.No wind88%30.07 "HgN/A
8:00 PM72 °FPassing clouds.7 mph83%30.07 "HgN/A
7:00 PM72 °FPassing clouds.5 mph83%30.04 "HgN/A
6:00 PM75 °FPassing clouds.7 mph78%30.04 "HgN/A
5:00 PM79 °FScattered clouds.7 mph74%30.01 "HgN/A
4:00 PM81 °FScattered clouds.7 mph74%30.01 "HgN/A
3:00 PM81 °FScattered clouds.5 mph74%30.01 "HgN/A
2:00 PM81 °FScattered clouds.5 mph70%30.01 "HgN/A
1:00 PM81 °FScattered clouds.7 mph66%30.04 "HgN/A
12:00 PM77 °FScattered showers. Broken clouds.7 mph79%30.07 "HgN/A
Weather by CustomWeather, © 2015

See weather overviewHow to use our weather pages